Regional Weather Roundup
Issued by NWS Upton, NY

Current Version | Previous Version | Graphics & Text | Print | Product List | Glossary Off
Versions: 1 2 3 4 5 6 7 8 9 10 11 12 13 14 15 16 17 18 19 20 21 22 23 24 25 26 27

000
ASUS41 KOKX 271205
RWROKX

REGIONAL WEATHER ROUNDUP
NATIONAL WEATHER SERVICE NEW YORK NY
800 AM EDT FRI MAY 27 2016

NOTE: "FAIR" INDICATES FEW OR NO CLOUDS BELOW 12,000 FEET WITH NO
SIGNIFICANT WEATHER AND/OR OBSTRUCTIONS TO VISIBILITY.

NYZ071-072-176-178-NJZ106-104-271300-
NEW YORK CITY METRO AREA


CITY           SKY/WX    TMP DP  RH WIND       PRES   REMARKS
CENTRAL PARK   CLOUDY    75  61  61 CALM      30.09R
LAGUARDIA APRT NOT AVBL
KENNEDY INTL   CLOUDY    70  62  76 S7        30.08S
NEWARK/LIBERTY CLOUDY    73  62  68 S5        30.06R
BRNX BOT. GARD   N/A     70  59  68 E3        30.08F
TETERBORO      CLOUDY    75  60  59 SW6       30.05R
$$

NYZ177-179-078>081-271300-
LONG ISLAND NEW YORK

CITY           SKY/WX    TMP DP  RH WIND       PRES   REMARKS
FARMINGDALE    CLOUDY    69  61  75 S6        30.08S
ISLIP          PTSUNNY   68  62  81 S6        30.08S
SHIRLEY        MOSUNNY   67  61  81 VRB5      30.10R
RIVERHEAD        N/A     68  63  83 W1        30.08S
WESTHAMPTON    SUNNY     65  59  81 SW5       30.11S
EAST HAMPTON   FAIR      63  58  84 S5        30.09F
MONTAUK POINT    N/A     63  58  83 S6        30.11S
$$

NYZ052-065-067-271300-
HUDSON VALLEY

CITY           SKY/WX    TMP DP  RH WIND       PRES   REMARKS
WHITE PLAINS   CLOUDY    67  59  75 CALM      30.07S
NEWBURGH       MOSUNNY   72  61  68 VRB6      30.07
MONTGOMERY     CLOUDY    70  62  76 CALM      30.06R
POUGHKEEPSIE   PTSUNNY   73  59  61 SE5       30.05R
ALBANY         PTSUNNY   73  54  51 S8        30.03R
$$

NJZ001-105-106-008-010-013-015-019>022-104-271300-
NEW JERSEY

CITY           SKY/WX    TMP DP  RH WIND       PRES   REMARKS
NEWARK/LIBERTY CLOUDY    73  62  68 S5        30.06R
TETERBORO      CLOUDY    75  60  59 SW6       30.05R
CALDWELL       CLOUDY    70  62  76 CALM      30.07R
MORRISTOWN     CLOUDY    68  66  94 CALM      30.08R
SOMERVILLE     MOSUNNY   71  63  75 CALM      30.05S
SUSSEX         CLOUDY    68  65  90 S3        30.06S
ANDOVER          N/A     70  66  87 CALM      30.07S
TRENTON        SUNNY     71  64  78 S5        30.07S
MILLVILLE      SUNNY     73  65  75 VRB3      30.09R
ATLANTIC CITY  SUNNY     72  64  76 SW6       30.09R
WRIGHTSTOWN    SUNNY     72  65  79 SW8       30.06S
TOMS RIVER     SUNNY     73  63  68 SW3       30.09S
BELMAR         CLOUDY    71  64  78 S5        30.09S
$$

PAZ047>061-062-071-271300-
EASTERN PENNSYLVANIA

CITY           SKY/WX    TMP DP  RH WIND       PRES   REMARKS
PHILADELPHIA   MOSUNNY   73  64  73 SW9       30.08R
ALLENTOWN      MOSUNNY   71  67  87 CALM      30.06F FOG
SCRANTON       CLOUDY    73  64  73 SW6       30.07S
$$

CTZ002-004>006-009-010-012-RIZ004-006-007-MAZ004-011-015-271300-
SOUTHERN NEW ENGLAND
 IN CT

CITY           SKY/WX    TMP DP  RH WIND       PRES   REMARKS
BRADLEY INTL   PTSUNNY   70  56  61 S7        30.07R
HARTFORD       MOSUNNY   70  58  65 S5        30.07F
DANBURY        CLOUDY    69  58  67 SE3       30.09S
WTRBRY/OXFORD  MOSUNNY   66  57  72 CALM      30.10S
BRIDGEPORT     CLOUDY    64  59  83 E7        30.08S
MERIDEN        CLOUDY    67  59  75 SE3       30.08S
NEW HAVEN      MOSUNNY   66  60  81 E5        30.09R
CHESTER        FAIR      66  59  77 CALM      30.10S
GROTON         MOSUNNY   62  60  93 CALM      30.09F
WILLIMANTIC    SUNNY     66  57  72 SE3       30.10S

 IN RI

CITY           SKY/WX    TMP DP  RH WIND       PRES   REMARKS
PROVIDENCE     CLOUDY    63  57  81 S6        30.11F
BLOCK ISLAND   MOSUNNY   62  58  86 SW10      30.11S
WESTERLY       CLOUDY    62  57  83 S3        30.11S

 IN MA

CITY           SKY/WX    TMP DP  RH WIND       PRES   REMARKS
BOSTON         CLOUDY    62  57  83 E3        30.12R
WORCESTER      CLOUDY    61  55  81 E5        30.12S
WESTFIELD      SUNNY     69  56  62 SW3       30.07R
PROVINCETOWN   CLOUDY    61  57  87 S13G20    30.12S
NANTUCKET      FOG       58  57  97 SE10      30.14S VSB 1/4
$$

ANZ330-335-338-340-345-350-353-355-271300-
COASTAL MARINE OBSERVATIONS


STATION/POSITION TIME  SKY/WX   TEMP    WIND        PRES    VSBY  WAVE
                                AIR SEA DIR/SP/G                  HT/PER
                 (UTC)          (F)     (DEG/KT/KT) (MB)    (MI)  (FT/S)
NY HARB ENTRANCE 1050            62 60  180/ 10/ 12 1018.1          2/ 7
20S FIRE ISLAND  1050            60 59  210/  8/ 10 1018.8          3/ 8
GREAT SOUTH BAY  1100            63 67  220/  6/  8   N/A
23 SSW MONTAUK P 1150            59 57  200/ 10/ 12 1018.9          2/ 8
15 E BARNEGAT LI 1122               59                N/A           3/10
HUDSON CANYON    1050            60 55              1020.0          3/ 6
KINGS POINT      1100            65 58              1017.8
EXECUTION ROCKS  NOT AVBL
CENTRAL LI SOUND 1100            61     140/  4/  6   N/A           0
EASTERN LI SOUND 1100            56 53  130/  2/  4   N/A
ROBBINS REEF     1100            68     170/ 13/ 13 1017.2
$$


>>>>>>>>>>>>>>>>>>>>>>>>>>>> KEY <<<<<<<<<<<<<<<<<<<<<<<<<<<
>                                                          <
>     SKY/WX - SKY CONDITION/PRESENT WEATHER               <
>     TMP    - TEMPERATURE IN FAHRENHEIT                   <
>     DP     - DEWPOINT IN FAHRENHEIT                      <
>     RH     - RELATIVE HUMIDITY IN PERCENT                <
>     WIND   - DIRECTION AND SPEED IN MPH                  <
>     PRES   - MEAN SEA LEVEL PRESSURE IN INCHES OF HG     <
>     WCI    - WIND CHILL INDEX                            <
>     VSB    - VISIBILITY IN MILES                         <
>     HX     - HEAT INDEX                                  <
>     TC     - TEMPERATURE IN CELSIUS                      <
>     VRB    - VARIABLE WIND DIRECTION                     <
>                                                          <
>>>>>>>>>>>>>>>>>>>>>>>>>>>> KEY <<<<<<<<<<<<<<<<<<<<<<<<<<<






USA.gov is the U.S. government's official web portal to all federal, state and local government web resources and services.